Content
SEND FEEDBACK

Daily
Averages
Monthly
Summary
United States of America

DEDEDO, GUAM


Home > North America > United States > Guam
Elevation: 364 feet     Latitude: 13 33N     Longitude: 144 49E

WEATHER
 
SELECT A DAY
Number of Records: 214,100;   Date Range: 1/1/95 - 10/29/14
 
SHARE

PRINT THIS DATA

[ ← Previous Day ]
WEATHER ALMANAC - MAY 14, 2013
[ Next Day → ]
[ °C ]   °F
Weather ElementAverageHighLow
Temperature85.8 °F89.1 °F (10:54 am)82 °F (3:54 am)
Dewpoint74.4 °F75.9 °F (12:54 pm)72 °F (9:54 am)
Humidity68.8 %77 % (1:54 am)57 % (10:54 am)
Barometer29.86 in29.90 in (8:54 am)29.81 in (3:54 pm)
Wind Speed9.7 mph16.1 mph (12:03 pm)
Wind Gust20.7 mph (12:03 pm)
Weather ElementAverage
Visibility10 mi
Wind DirectionESE (100 °)

Weather ElementTotal
Precipitation---
Cooling Degree Days20.6 (Base 65)
Growing Degree Days35.6 (Base 50)
Averaged from 24 records on May 14, 2013
WEATHER CONDITIONS BREAKOUT
WIND DIRECTION BREAKOUT
WEATHER BY HOUR - MAY 14, 2013
[ °C ]   °F
Local TimeTemperatureDewpointHumidityBarometerVisibilityWind DirectionWind SpeedGust SpeedPrecipitationEventsConditions
1:54 AM82.9 °F75.0 °F77 %29.86 in10.0 miEast (100°)6.9 mphScattered Clouds
2:54 AM82.9 °F75.0 °F77 %29.85 in10.0 miESE (110°)5.8 mphScattered Clouds
3:54 AM82.0 °F73.9 °F76 %29.85 in10.0 miESE (120°)4.6 mphScattered Clouds
4:54 AM82.0 °F73.9 °F76 %29.86 in10.0 miESE (120°)5.8 mphScattered Clouds
6:54 AM82.9 °F73.0 °F72 %29.88 in10.0 miESE (110°)8.1 mphClear
7:54 AM84.9 °F73.9 °F69 %29.89 in10.0 miEast (100°)5.8 mphClear
8:54 AM86.0 °F73.9 °F67 %29.90 in10.0 miEast (100°)9.2 mphClear
9:54 AM87.1 °F72.0 °F61 %29.89 in10.0 miEast (100°)11.5 mphPartly Cloudy
10:54 AM89.1 °F72.0 °F57 %29.87 in10.0 miEast (90°)13.8 mphClear
11:54 AM88.0 °F75.0 °F65 %29.86 in10.0 miESE (110°)12.7 mphScattered Clouds
12:03 PM87.8 °F75.2 °F66 %29.88 in10.0 miESE (110°)16.1 mph20.7 mphMostly Cloudy
12:08 PM87.8 °F75.2 °F66 %29.88 in10.0 miEast (90°)13.8 mph20.7 mphMostly Cloudy
12:54 PM89.1 °F75.9 °F65 %29.85 in10.0 miESE (110°)15.0 mph20.7 mphScattered Clouds
1:54 PM89.1 °F75.0 °F63 %29.83 in10.0 miEast (100°)10.4 mph16.1 mphPartly Cloudy
2:54 PM89.1 °F75.0 °F63 %29.82 in10.0 miEast (100°)10.4 mph19.6 mphScattered Clouds
3:54 PM89.1 °F73.9 °F61 %29.81 in10.0 miEast (80°)12.7 mphPartly Cloudy
4:54 PM88.0 °F73.9 °F63 %29.81 in10.0 miESE (110°)11.5 mphPartly Cloudy
5:54 PM86.0 °F73.9 °F67 %29.82 in10.0 miEast (100°)10.4 mphPartly Cloudy
6:54 PM84.9 °F73.9 °F69 %29.83 in10.0 miEast (90°)6.9 mphPartly Cloudy
7:54 PM84.0 °F75.0 °F74 %29.85 in10.0 miEast (90°)8.1 mphClear
8:54 PM84.0 °F75.0 °F74 %29.87 in10.0 miEast (90°)8.1 mphPartly Cloudy
9:54 PM84.0 °F75.0 °F74 %29.88 in10.0 miEast (90°)8.1 mphScattered Clouds
10:54 PM84.0 °F75.0 °F74 %29.90 in10.0 miEast (90°)8.1 mphPartly Cloudy
11:54 PM84.0 °F75.9 °F76 %29.88 in10.0 miEast (90°)8.1 mphPartly Cloudy
Hourly data recorded from PGUM, located miles away from Dededo, Guam







STORIES FROM OUR PARTNERS